Location: Hines Observatory
(31.5604°N, 83.5172°W)
Time: 23:44:45
(UTC-04:00)

Daily predictions for brighter satellites

Satellite Brightness Start Highest point End
(mag) Time Altitude Azimuth Time Altitude Azimuth Time Altitude Azimuth
SJ-6B 3.1 20:21:18 10° S 20:25:01 69° WSW 20:28:45 10° NNW
Resurs 01 Rocket 1.7 20:23:22 10° SSE 20:27:43 61° ENE 20:32:06 10° N
Helios 1B rocket 2.6 20:23:53 10° N 20:28:00 80° WNW 20:32:06 10° SSW
Okean 2 3.8 20:26:03 10° N 20:30:03 44° E 20:33:59 10° SSE
Cosmos 2227 Rocket 2.9 20:25:29 10° N 20:30:39 35° ENE 20:35:46 10° SE
Hubble Space Telescope 2.1 20:27:18 10° WSW 20:30:58 30° SSW 20:34:37 10° SE
H-2A R/B 3.8 20:27:34 10° W 20:31:20 51° S 20:49:44 11° ESE
Myojo/LAPS 3.3 20:30:46 10° WSW 20:33:53 40° S 20:36:00 11° ESE
HJ-1C 3.2 20:32:15 10° SSE 20:35:30 79° ENE 20:38:47 10° N
OAO 2 Rocket 3.7 20:33:20 10° W 20:38:17 63° N 20:43:19 10° ENE
NOAA 12 4.5 20:34:13 10° S 20:39:25 68° WSW 20:44:38 10° NNW
Meteor 1-29 3.9 20:39:58 10° N 20:43:21 53° WNW 20:46:45 10° SSW
Meteor 2-16 Rocket 4.4 20:37:33 10° S 20:43:38 87° E 20:49:43 10° N
Meteor 1-5 Rocket 4.2 20:39:02 10° S 20:44:20 84° W 20:49:48 10° N
Cosmos 2297 Rocket 3.0 20:40:39 10° N 20:45:43 33° ENE 20:50:15 12° SE
ALOS 2.7 20:41:48 10° SE 20:46:11 42° ENE 20:50:36 10° N
FREGAT/IRIS 4.3 20:43:33 10° SSW 20:46:28 37° W 20:49:25 10° NNW
Cosmos 2082 4.1 20:41:12 10° N 20:46:35 45° ENE 20:51:56 10° SE
Helios 1A 3.4 20:47:31 10° S 20:51:39 67° W 20:55:49 10° NNW
ATLAS 2A CENTAUR R/B 2.8 20:47:46 10° W 20:52:37 22° SW 20:54:42 11° SSE
Cosmos 1346 Rocket 2.7 20:48:52 10° N 20:52:50 70° E 20:56:49 10° SSE
USA 186 2.7 20:51:42 17° ESE 20:53:16 26° ENE 20:55:47 10° NNE
ATLAS 3B CENTAUR R/B 1.3 20:52:40 10° WSW 20:54:33 23° SSW 20:55:11 19° SSE
OTV 4 0.8 20:53:58 10° WNW 20:56:53 52° NNE 20:58:28 22° E
NOSS 3-4 (A) 3.9 20:52:49 10° NNW 20:59:59 85° ENE 21:07:33 10° SSE
NOSS 3-4 (C) 3.9 20:52:56 10° NNW 21:00:07 84° ENE 21:07:41 10° SSE
Cosmos 1461 2.6 21:01:03 10° NNW 21:05:04 77° ENE 21:07:46 19° SSE
Cosmos 1605 Rocket 4.1 21:03:17 10° S 21:09:38 83° W 21:15:56 10° N
CZ-4B DEB 3.2 21:07:31 10° S 21:10:45 64° W 21:14:00 10° NNW
Cosmos 1743 4.0 21:13:07 23° ENE 21:13:07 23° ENE 21:15:39 10° NE
Cosmos 1697 Rocket 2.6 21:10:21 10° SSW 21:15:59 79° ESE 21:21:38 10° NNE
Tiangong 1 3.7 21:16:06 10° NNW 21:17:25 12° N 21:18:43 10° NE
Cosmos 2100 Rocket 4.2 21:13:27 10° SSE 21:19:25 46° E 21:25:20 10° NNE
RESURS DK-1 4.0 21:16:41 10° NNE 21:19:37 19° ENE 21:19:37 19° ENE
H-2A R/B 4.1 21:20:45 12° NE 21:20:45 12° NE 21:21:37 10° NE
Envisat 4.0 21:23:25 26° E 21:24:06 27° ENE 21:28:19 10° NNE
Iridium 4 Rocket 3.1 21:21:32 10° N 21:26:21 67° E 21:29:07 23° SSE
Cosmos 1626 Rocket 3.4 21:23:17 10° N 21:27:41 86° E 21:30:34 21° S
Cosmos 2061 Rocket 4.1 21:23:28 10° SSE 21:29:34 51° E 21:35:35 10° NNE
Cosmos 2298 Rocket 4.2 21:24:38 10° N 21:29:51 55° ENE 21:31:50 35° SE
Cosmos 1937 Rocket 4.2 21:26:24 10° N 21:31:14 35° ENE 21:32:04 33° E
Cosmos 2084 3.9 21:28:45 10° NNW 21:32:42 42° ENE 21:33:09 40° ENE
Cosmos 1602 Rocket 3.7 21:33:01 10° N 21:37:27 72° W 21:40:24 20° S
H-2A R/B 3.6 21:35:06 15° S 21:38:06 49° W 21:41:55 10° NNW
Cosmos 1980 Rocket 2.1 21:33:52 10° SSW 21:39:29 74° ESE 21:45:10 10° NNE
Cosmos 220 Rocket 4.0 21:37:28 10° NNW 21:41:40 72° WSW 21:43:07 39° S
Lacrosse 5 2.7 21:39:43 10° NNW 21:44:19 34° NE 21:44:53 33° ENE
SPOT 5 4.2 21:49:22 26° NE 21:49:22 26° NE 21:52:29 10° NNE
Cosmos 1459 Rocket 3.8 21:42:32 10° S 21:48:34 79° E 21:54:39 10° N
ERS-1 Rocket 2.9 21:48:21 54° SE 21:49:16 65° ENE 21:54:15 10° N
Cosmos 2150 Rocket 3.8 21:50:21 10° NNW 21:55:31 85° ENE 21:56:30 60° SSE
BREEZE-M TANK 3.9 21:49:34 10° NW 21:57:07 32° N 21:58:04 29° NE
Lacrosse 5 rocket 2.0 21:54:48 10° NW 21:57:58 42° WSW 21:57:58 42° WSW
Cosmos 2098 Rocket 4.2 22:00:54 51° ESE 22:01:32 53° E 22:07:28 10° NNE
SJ-11-01 4.2 22:01:22 66° S 22:02:00 80° WSW 22:06:41 10° NNW
Cosmos 1763 Rocket 3.3 21:56:55 10° SSW 22:02:02 86° WNW 22:07:09 10° NNE
Delta 2 Rocket 4.5 21:58:17 10° W 22:03:36 44° SSW 22:03:59 43° SSW
Cosmos 1606 Rocket 4.1 22:06:32 52° N 22:06:32 52° N 22:09:55 10° N
Cosmos 1898 Rocket 3.8 22:06:23 10° NNW 22:11:36 62° WSW 22:12:34 52° SSW
Cosmos 2322 Rocket 4.0 22:16:55 18° NE 22:16:55 18° NE 22:18:23 10° NNE
DELTA 2 R/B (1) 3.4 22:07:25 10° WNW 22:13:00 82° NNE 22:13:06 82° NE
Cosmos 2227 Rocket 4.1 22:09:57 10° NW 22:14:26 24° WSW 22:18:41 11° SSW
OAO 2 Rocket 3.7 22:18:23 10° WNW 22:22:50 59° NNW 22:22:50 59° NNW
Cosmos 1939 Rocket 4.2 22:25:01 40° NW 22:25:01 40° NW 22:27:59 10° NNW
Cosmos 841 Rocket 4.0 22:23:27 35° SW 22:25:30 58° WNW 22:30:39 10° N
SL-08 R/B 4.4 22:25:29 75° SSW 22:26:06 87° W 22:32:18 10° N
Meteor 1-21 4.3 22:23:30 10° N 22:29:03 80° NW 22:29:03 80° NW
Cosmos 2297 Rocket 4.0 22:24:57 10° NW 22:29:32 26° WSW 22:32:06 19° SW
Cosmos 2016 Rocket 4.4 22:34:59 39° SW 22:37:02 57° W 22:43:07 10° N
SL-16 R/B 4.0 23:13:10 25° N 23:13:10 25° N 23:15:37 10° N
Lacrosse 5 4.4 23:22:49 10° WNW 23:24:05 16° WNW 23:24:05 16° WNW
